Time,TemperatureF,DewpointF,PressureIn,WindDirection,WindDirectionDegrees,WindSpeedMPH,WindSpeedGustMPH,Humidity,HourlyPrecipIn,Conditions,Clouds,dailyrainin,SoftwareType,DateUTC
2013-07-12 00:02:00,67.0,56.0,30.27,WNW,292,5.0,12.0,67,0.00,,,0.00,,2013-07-12 07:02:00,
2013-07-12 00:11:00,67.0,56.0,30.26,WNW,286,4.0,9.0,67,0.00,,,0.00,,2013-07-12 07:11:00,
2013-07-12 00:32:00,66.0,55.0,30.24,North,0,0.0,6.0,67,0.00,,,0.00,,2013-07-12 07:32:00,
2013-07-12 00:43:00,66.0,54.0,30.24,North,0,0.0,3.0,66,0.00,,,0.00,,2013-07-12 07:43:00,
2013-07-12 00:52:00,66.0,55.0,30.24,West,274,1.0,4.0,68,0.00,,,0.00,,2013-07-12 07:52:00,
2013-07-12 01:01:00,65.0,54.0,30.24,North,0,0.0,4.0,68,0.00,,,0.00,,2013-07-12 08:01:00,
2013-07-12 01:11:00,65.0,55.0,30.24,SW,222,1.0,5.0,69,0.00,,,0.00,,2013-07-12 08:11:00,
2013-07-12 01:21:00,65.0,55.0,30.24,SW,222,1.0,5.0,69,0.00,,,0.00,,2013-07-12 08:21:00,
2013-07-12 01:31:00,65.0,55.0,30.24,SW,222,1.0,5.0,69,0.00,,,0.00,,2013-07-12 08:31:00,
2013-07-12 01:42:00,64.0,55.0,30.24,SW,230,1.0,4.0,73,0.00,,,0.00,,2013-07-12 08:42:00,
2013-07-12 01:53:00,63.0,55.0,30.24,North,0,0.0,2.0,74,0.00,,,0.00,,2013-07-12 08:53:00,
2013-07-12 02:02:00,63.0,55.0,30.24,North,0,0.0,2.0,74,0.00,,,0.00,,2013-07-12 09:02:00,
2013-07-12 02:12:00,62.0,55.0,30.24,SW,229,1.0,3.0,77,0.00,,,0.00,,2013-07-12 09:12:00,
2013-07-12 02:22:00,62.0,55.0,30.24,SW,229,1.0,3.0,77,0.00,,,0.00,,2013-07-12 09:22:00,
2013-07-12 02:32:00,61.0,54.0,30.24,North,0,0.0,2.0,79,0.00,,,0.00,,2013-07-12 09:32:00,
2013-07-12 02:42:00,60.0,54.0,30.24,SW,229,1.0,4.0,81,0.00,,,0.00,,2013-07-12 09:42:00,
2013-07-12 02:52:00,60.0,54.0,30.23,North,0,0.0,3.0,82,0.00,,,0.00,,2013-07-12 09:52:00,
2013-07-12 03:01:00,60.0,54.0,30.23,North,0,0.0,3.0,82,0.00,,,0.00,,2013-07-12 10:01:00,
2013-07-12 03:11:00,60.0,54.0,30.23,North,0,0.0,3.0,82,0.00,,,0.00,,2013-07-12 10:11:00,
2013-07-12 03:22:00,59.0,54.0,30.24,North,0,0.0,4.0,84,0.00,,,0.00,,2013-07-12 10:22:00,
2013-07-12 03:33:00,59.0,54.0,30.24,North,0,0.0,4.0,84,0.00,,,0.00,,2013-07-12 10:33:00,
2013-07-12 03:42:00,58.0,54.0,30.24,North,0,0.0,3.0,86,0.00,,,0.00,,2013-07-12 10:42:00,
2013-07-12 03:52:00,58.0,54.0,30.24,North,0,0.0,3.0,86,0.00,,,0.00,,2013-07-12 10:52:00,
2013-07-12 04:02:00,58.0,54.0,30.25,North,0,0.0,2.0,87,0.00,,,0.00,,2013-07-12 11:02:00,
2013-07-12 04:11:00,58.0,54.0,30.25,North,0,0.0,2.0,87,0.00,,,0.00,,2013-07-12 11:11:00,
2013-07-12 04:22:00,58.0,54.0,30.25,SW,219,1.0,3.0,88,0.00,,,0.00,,2013-07-12 11:22:00,
2013-07-12 04:32:00,58.0,54.0,30.25,North,0,0.0,3.0,87,0.00,,,0.00,,2013-07-12 11:32:00,
2013-07-12 04:43:00,58.0,54.0,30.25,North,0,0.0,3.0,87,0.00,,,0.00,,2013-07-12 11:43:00,
2013-07-12 04:53:00,57.0,54.0,30.26,North,0,0.0,1.0,89,0.00,,,0.00,,2013-07-12 11:53:00,
2013-07-12 05:01:00,57.0,54.0,30.26,North,0,0.0,1.0,89,0.00,,,0.00,,2013-07-12 12:01:00,
2013-07-12 05:11:00,57.0,54.0,30.26,North,0,0.0,1.0,89,0.00,,,0.00,,2013-07-12 12:11:00,
2013-07-12 05:22:00,57.0,54.0,30.26,North,0,0.0,1.0,89,0.00,,,0.00,,2013-07-12 12:22:00,
2013-07-12 05:32:00,57.0,54.0,30.27,North,0,0.0,3.0,90,0.00,,,0.00,,2013-07-12 12:32:00,
2013-07-12 05:43:00,56.0,53.0,30.28,North,0,0.0,2.0,90,0.00,,,0.00,,2013-07-12 12:43:00,
2013-07-12 05:52:00,56.0,53.0,30.28,North,0,0.0,2.0,90,0.00,,,0.00,,2013-07-12 12:52:00,
2013-07-12 06:01:00,56.0,53.0,30.28,North,0,0.0,2.0,91,0.00,,,0.00,,2013-07-12 13:01:00,
2013-07-12 06:11:00,56.0,53.0,30.28,North,0,0.0,2.0,91,0.00,,,0.00,,2013-07-12 13:11:00,
2013-07-12 06:22:00,56.0,53.0,30.28,North,0,0.0,2.0,91,0.00,,,0.00,,2013-07-12 13:22:00,
2013-07-12 06:32:00,58.0,55.0,30.29,North,0,0.0,2.0,89,0.00,,,0.00,,2013-07-12 13:32:00,
2013-07-12 06:43:00,59.0,55.0,30.27,SSW,200,1.0,4.0,87,0.00,,,0.00,,2013-07-12 13:43:00,
2013-07-12 06:53:00,60.0,55.0,30.27,South,189,1.0,4.0,85,0.00,,,0.00,,2013-07-12 13:53:00,
2013-07-12 07:02:00,61.0,56.0,30.27,SSE,167,1.0,4.0,83,0.00,,,0.00,,2013-07-12 14:02:00,
2013-07-12 07:11:00,62.0,55.0,30.27,SSW,210,1.0,4.0,78,0.00,,,0.00,,2013-07-12 14:11:00,
2013-07-12 07:22:00,65.0,55.0,30.27,SW,225,2.0,5.0,70,0.00,,,0.00,,2013-07-12 14:22:00,
2013-07-12 07:32:00,67.0,52.0,30.27,WSW,252,5.0,10.0,59,0.00,,,0.00,,2013-07-12 14:32:00,
2013-07-12 07:43:00,68.0,53.0,30.27,WSW,244,5.0,12.0,58,0.00,,,0.00,,2013-07-12 14:43:00,
2013-07-12 07:53:00,68.0,52.0,30.27,SW,225,6.0,12.0,56,0.00,,,0.00,,2013-07-12 14:53:00,
2013-07-12 08:01:00,68.0,51.0,30.27,West,266,7.0,13.0,55,0.00,,,0.00,,2013-07-12 15:01:00,
2013-07-12 08:11:00,69.0,53.0,30.27,SW,219,5.0,11.0,56,0.00,,,0.00,,2013-07-12 15:11:00,
2013-07-12 08:22:00,69.0,53.0,30.27,SW,219,5.0,11.0,56,0.00,,,0.00,,2013-07-12 15:22:00,
2013-07-12 08:52:00,70.0,53.0,30.29,WSW,244,4.0,14.0,54,0.00,,,0.00,,2013-07-12 15:52:00,
2013-07-12 09:01:00,70.0,53.0,30.29,West,267,6.0,16.0,54,0.00,,,0.00,,2013-07-12 16:01:00,
2013-07-12 09:11:00,70.0,53.0,30.29,West,267,6.0,16.0,54,0.00,,,0.00,,2013-07-12 16:11:00,
2013-07-12 09:22:00,70.0,53.0,30.29,West,267,6.0,16.0,54,0.00,,,0.00,,2013-07-12 16:22:00,
2013-07-12 09:32:00,70.0,53.0,30.29,SW,224,7.0,13.0,55,0.00,,,0.00,,2013-07-12 16:32:00,
2013-07-12 09:42:00,70.0,53.0,30.29,SW,224,7.0,13.0,55,0.00,,,0.00,,2013-07-12 16:42:00,
2013-07-12 09:58:00,71.0,54.0,30.29,SW,224,7.0,17.0,54,0.00,,,0.00,,2013-07-12 16:58:00,
2013-07-12 10:11:00,71.0,54.0,30.29,SW,224,7.0,17.0,54,0.00,,,0.00,,2013-07-12 17:11:00,
2013-07-12 10:44:00,72.0,53.0,30.30,West,266,6.0,16.0,52,0.00,,,0.00,,2013-07-12 17:44:00,
2013-07-12 10:52:00,73.0,53.0,30.30,SSW,213,5.0,12.0,50,0.00,,,0.00,,2013-07-12 17:52:00,
2013-07-12 11:02:00,74.0,54.0,30.29,SW,218,4.0,13.0,49,0.00,,,0.00,,2013-07-12 18:02:00,
2013-07-12 11:12:00,74.0,54.0,30.29,SW,218,4.0,13.0,49,0.00,,,0.00,,2013-07-12 18:12:00,
2013-07-12 11:32:00,73.0,53.0,30.29,SW,234,7.0,16.0,49,0.00,,,0.00,,2013-07-12 18:32:00,
2013-07-12 11:43:00,74.0,53.0,30.28,SSW,208,7.0,14.0,48,0.00,,,0.00,,2013-07-12 18:43:00,
2013-07-12 11:56:00,75.0,53.0,30.27,South,177,5.0,14.0,47,0.00,,,0.00,,2013-07-12 18:56:00,
2013-07-12 12:02:00,75.0,53.0,30.27,South,177,5.0,14.0,47,0.00,,,0.00,,2013-07-12 19:02:00,
2013-07-12 12:11:00,75.0,53.0,30.27,South,177,5.0,14.0,47,0.00,,,0.00,,2013-07-12 19:11:00,
2013-07-12 12:21:00,75.0,53.0,30.27,South,177,5.0,14.0,47,0.00,,,0.00,,2013-07-12 19:21:00,
2013-07-12 12:32:00,76.0,52.0,30.26,West,277,6.0,13.0,44,0.00,,,0.00,,2013-07-12 19:32:00,
2013-07-12 12:46:00,76.0,52.0,30.26,West,277,6.0,13.0,44,0.00,,,0.00,,2013-07-12 19:46:00,
2013-07-12 12:57:00,76.0,52.0,30.26,West,277,6.0,13.0,44,0.00,,,0.00,,2013-07-12 19:57:00,
2013-07-12 13:22:00,78.0,50.0,30.24,West,262,7.0,16.0,38,0.00,,,0.00,,2013-07-12 20:22:00,
2013-07-12 13:33:00,78.0,50.0,30.24,West,262,7.0,16.0,38,0.00,,,0.00,,2013-07-12 20:33:00,
2013-07-12 14:01:00,78.0,51.0,30.22,SSW,193,4.0,14.0,39,0.00,,,0.00,,2013-07-12 21:01:00,
2013-07-12 14:22:00,78.0,51.0,30.22,SSW,193,4.0,14.0,39,0.00,,,0.00,,2013-07-12 21:22:00,
2013-07-12 14:42:00,79.0,52.0,30.23,WSW,250,8.0,15.0,39,0.00,,,0.00,,2013-07-12 21:42:00,
2013-07-12 14:56:00,80.0,51.0,30.22,WSW,252,6.0,17.0,37,0.00,,,0.00,,2013-07-12 21:56:00,
2013-07-12 15:02:00,80.0,51.0,30.22,WSW,252,6.0,17.0,37,0.00,,,0.00,,2013-07-12 22:02:00,
2013-07-12 15:11:00,80.0,51.0,30.22,WSW,252,6.0,17.0,37,0.00,,,0.00,,2013-07-12 22:11:00,
2013-07-12 15:22:00,80.0,51.0,30.22,WSW,252,6.0,17.0,37,0.00,,,0.00,,2013-07-12 22:22:00,
2013-07-12 15:46:00,77.0,51.0,30.23,SW,228,7.0,16.0,40,0.00,,,0.00,,2013-07-12 22:46:00,
2013-07-12 15:54:00,77.0,51.0,30.23,SW,228,7.0,16.0,40,0.00,,,0.00,,2013-07-12 22:54:00,
2013-07-12 16:02:00,76.0,52.0,30.22,SW,215,7.0,17.0,43,0.00,,,0.00,,2013-07-12 23:02:00,
2013-07-12 16:11:00,76.0,52.0,30.22,SW,215,7.0,17.0,43,0.00,,,0.00,,2013-07-12 23:11:00,
2013-07-12 16:22:00,75.0,53.0,30.23,WSW,247,9.0,16.0,46,0.00,,,0.00,,2013-07-12 23:22:00,
2013-07-12 16:33:00,73.0,53.0,30.25,SW,230,9.0,18.0,49,0.00,,,0.00,,2013-07-12 23:33:00,
2013-07-12 16:53:00,71.0,52.0,30.27,WSW,252,11.0,24.0,51,0.00,,,0.00,,2013-07-12 23:53:00,
2013-07-12 17:01:00,70.0,52.0,30.27,SW,225,11.0,21.0,53,0.00,,,0.00,,2013-07-13 00:01:00,
2013-07-12 17:12:00,69.0,53.0,30.27,SW,220,7.0,17.0,56,0.00,,,0.00,,2013-07-13 00:12:00,
2013-07-12 17:22:00,69.0,53.0,30.27,SW,220,7.0,17.0,56,0.00,,,0.00,,2013-07-13 00:22:00,
2013-07-12 17:32:00,69.0,53.0,30.27,SW,220,7.0,17.0,56,0.00,,,0.00,,2013-07-13 00:32:00,
2013-07-12 17:43:00,64.0,57.0,30.27,SSW,213,4.0,10.0,79,0.01,,,0.01,,2013-07-13 00:43:00,
2013-07-12 17:52:00,64.0,57.0,30.27,SSW,213,4.0,10.0,79,0.01,,,0.01,,2013-07-13 00:52:00,
2013-07-12 18:02:00,62.0,58.0,30.27,SW,231,7.0,16.0,87,0.02,,,0.02,,2013-07-13 01:02:00,
2013-07-12 18:11:00,61.0,57.0,30.27,WSW,250,7.0,17.0,87,0.02,,,0.02,,2013-07-13 01:11:00,
2013-07-12 18:21:00,61.0,57.0,30.27,WSW,250,7.0,17.0,87,0.02,,,0.02,,2013-07-13 01:21:00,
2013-07-12 18:33:00,61.0,58.0,30.26,SW,230,4.0,14.0,91,0.03,,,0.03,,2013-07-13 01:33:00,
2013-07-12 18:43:00,61.0,58.0,30.26,SW,230,4.0,14.0,91,0.03,,,0.03,,2013-07-13 01:43:00,
2013-07-12 19:03:00,61.0,56.0,30.23,SSE,147,9.0,14.0,84,0.02,,,0.05,,2013-07-13 02:03:00,
2013-07-12 19:11:00,62.0,57.0,30.23,ESE,118,3.0,14.0,83,0.02,,,0.05,,2013-07-13 02:11:00,
2013-07-12 19:22:00,62.0,57.0,30.23,ESE,118,3.0,14.0,83,0.02,,,0.05,,2013-07-13 02:22:00,
2013-07-12 19:32:00,61.0,57.0,30.24,South,180,1.0,3.0,87,0.02,,,0.06,,2013-07-13 02:32:00,
2013-07-12 19:43:00,60.0,57.0,30.24,North,0,0.0,4.0,89,0.03,,,0.07,,2013-07-13 02:43:00,
2013-07-12 19:52:00,60.0,57.0,30.24,SSW,208,1.0,3.0,89,0.02,,,0.06,,2013-07-13 02:52:00,
2013-07-12 20:02:00,60.0,57.0,30.25,SSE,167,2.0,4.0,90,0.02,,,0.07,,2013-07-13 03:02:00,
2013-07-12 20:21:00,60.0,57.0,30.25,South,170,1.0,6.0,90,0.02,,,0.07,,2013-07-13 03:21:00,
2013-07-12 20:32:00,60.0,57.0,30.25,South,170,1.0,6.0,90,0.02,,,0.07,,2013-07-13 03:32:00,
2013-07-12 20:53:00,60.0,57.0,30.26,SSW,206,1.0,3.0,91,0.02,,,0.08,,2013-07-13 03:53:00,
2013-07-12 21:01:00,60.0,57.0,30.26,SSW,206,1.0,3.0,91,0.02,,,0.08,,2013-07-13 04:01:00,
2013-07-12 21:32:00,60.0,58.0,30.28,North,0,0.0,1.0,93,0.01,,,0.09,,2013-07-13 04:32:00,
2013-07-12 21:43:00,60.0,58.0,30.28,North,0,0.0,1.0,93,0.01,,,0.09,,2013-07-13 04:43:00,
2013-07-12 21:52:00,60.0,58.0,30.28,North,0,0.0,1.0,93,0.01,,,0.09,,2013-07-13 04:52:00,
2013-07-12 22:01:00,60.0,57.0,30.28,North,0,0.0,1.0,91,0.01,,,0.10,,2013-07-13 05:01:00,
2013-07-12 22:11:00,60.0,57.0,30.28,North,0,0.0,1.0,91,0.01,,,0.10,,2013-07-13 05:11:00,
2013-07-12 22:32:00,61.0,57.0,30.29,North,0,0.0,5.0,87,0.01,,,0.10,,2013-07-13 05:32:00,
2013-07-12 22:42:00,60.0,56.0,30.27,North,0,0.0,3.0,86,0.01,,,0.10,,2013-07-13 05:42:00,
2013-07-12 22:52:00,60.0,56.0,30.28,North,0,0.0,1.0,86,0.00,,,0.10,,2013-07-13 05:52:00,
2013-07-12 23:01:00,61.0,57.0,30.29,North,0,0.0,5.0,87,0.01,,,0.10,,2013-07-13 06:01:00,
2013-07-12 23:11:00,59.0,56.0,30.29,North,0,0.0,3.0,89,0.01,,,0.11,,2013-07-13 06:11:00,
2013-07-12 23:22:00,58.0,55.0,30.29,North,0,0.0,2.0,91,0.01,,,0.11,,2013-07-13 06:22:00,
2013-07-12 23:43:00,57.0,55.0,30.29,North,0,0.0,0.0,93,0.01,,,0.11,,2013-07-13 06:43:00,
2013-07-12 23:52:00,56.0,54.0,30.29,North,0,0.0,3.0,94,0.01,,,0.11,,2013-07-13 06:52:00,